Погода в Багане

Россия / Новосибирская область     54°05′50″N   77°39′56″E
темп.,
°C
ветер,
м/с
пор.,
м/с
влажн.,
%
обл.,
%
осадки,
мм/ч
давл.,
гПа
погр.,
м
16 мая, пн
пн1601:00+17зюз4124592 0.0 1012242
04:00+14юз464997 0.0 101280
07:00+15ююз495560 0.0 1012172
10:00+21юз7942100 0.0 1012785
13:00+22зюз694682 0.1 10131230
16:00+24зюз693770 0.0 10111838
19:00+25юз8113363 0.1 10092700
22:00+17ююв596086 2.3 1010178
17 мая, вт
вт1701:00+16ю5126880 2.3 1008204
04:00+16ю7166699 0.0 1006301
07:00+17ю616565 0.0 1005326
10:00+23юз711364 0.0 1005564
13:00+27зюз914268 0.0 10052820
16:00+28зюз1015252 0.0 10052938
19:00+26зюз8132789 0.0 10052953
22:00+20зсз6124283 0.0 1007491
18 мая, ср
ср1801:00+17з4860100 0.1 1009317
04:00+16зюз3563100 0.0 1010155
07:00+15з356694 0.0 1010137
10:00+19сз2240100 0.0 1012632
13:00+22зюз2430100 0.0 10121839
16:00+24зюз1227100 0.0 10101852
19:00+24в3429100 0.0 10091468
22:00+20вюв374298 0.0 1008121
19 мая, чт
чт1901:00+19вюв71552100 0.1 1004421
04:00+20ююв61449100 0.2 1002461
07:00+18зюз71162100 0.2 1002508
10:00+18зюз1012601 0.0 10041114
13:00+22юз1317345 0.0 10052720
16:00+19зюз1318345 0.0 10082503
19:00+19з10173610 0.0 10102824
22:00+16юз612425 0.0 1012476
20 мая, пт
пт2001:00+14юз45444 0.0 101277
04:00+13ююз51145100 0.0 1012215
07:00+14ююз6154871 0.0 1011435
10:00+19зюз91339100 0.0 10111102
13:00+21з7114213 0.0 10121803
16:00+23з610375 0.0 10111917
19:00+24зюз5103797 0.0 10102226
22:00+19ююв224979 0.0 100911